Norfolk, NE

5:14 AM CST on December 14, 2019 (GMT -0600)
Stefan Memorial

Weather History for KOFK - October, 2019

Change the Weather History Date:

Thursday, October 3, 2019

  Actual Average Record
Temperature  
Mean Temperature 47 °F 56 °F  
Max Temperature 56 °F 69 °F 96 °F (1938)
Min Temperature 38 °F 43 °F 27 °F (1987)
Degree Days  
Heating Degree Days 18 10  
Month to date heating degree days 44 28  
Since 1 July heating degree days 74 170  
Cooling Degree Days 0 1  
Month to date cooling degree days 0 3  
Year to date cooling degree days 949 909  
Moisture  
Dew Point 40 °F    
Average Humidity 76    
Maximum Humidity 93    
Minimum Humidity 59    
Precipitation  
Precipitation 0.00 in 0.09 in 1.08 in (1925)
Month to date precipitation 1.44 0.26  
Year to date precipitation 23.47 23.48  
Snow  
Snow 0.00 in 0.00 in - ()
Month to date snowfall 0.0 0.0  
Since 1 July snowfall 0.0 T  
Since 1 September snowfall 0.0 T  
Snow Depth 0.00 in    
Sea Level Pressure  
Sea Level Pressure 30.30 in    
Wind  
Wind Speed 9 mph (NW)    
Max Wind Speed 18 mph    
Max Gust Speed 26 mph    
Visibility 10 miles    
Events      
T = Trace of Precipitation, MM = Missing Value Source: NWS Daily Summary

Daily Weather History Graph

Daily Weather History Graph

Search for Another Location

Airport or City:

Astronomy

Oct. 03, 2019 Rise Set
Actual Time 7:28 AM CDT 7:08 PM CDT
Civil Twilight 7:00 AM CDT 7:36 PM CDT
Nautical Twilight 6:28 AM CDT 8:08 PM CDT
Astronomical Twilight 5:55 AM CDT 8:40 PM CDT
Moon 1:06 PM CDT (10/3) 10:43 PM CDT (10/3)
Length of Visible Light 12h 35m
Length of Day
11h 39m
Waxing Crescent, 30% of the Moon is Illuminated
Oct 3
Waxing Crescent
Oct 5
First Quarter
Oct 13
Full
Oct 21
Last Quarter
Oct 27
New

Hourly Weather History & Observations

Time (CDT) Temp. Windchill Dew Point Humidity Pressure Visibility Wind Dir Wind Speed Gust Speed Precip Events Conditions
12:56 AM 46.0 °F 41.9 °F 43.0 °F 89% 30.16 in 10.0 mi NW 8.1 mph - N/A   Mostly Cloudy
1:47 AM 46.9 °F - 43.0 °F 86% 30.15 in 10.0 mi NW 12.7 mph - N/A   Overcast
1:56 AM 46.9 °F - 42.1 °F 83% 30.17 in 10.0 mi NW 17.3 mph 24.2 mph N/A   Overcast
2:56 AM 46.9 °F - 41.0 °F 80% 30.19 in 10.0 mi NW 13.8 mph 21.9 mph N/A   Overcast
3:56 AM 44.1 °F 39.0 °F 39.9 °F 85% 30.22 in 10.0 mi WNW 9.2 mph - N/A   Mostly Cloudy
4:21 AM 43.0 °F 37.2 °F 39.0 °F 86% 30.20 in 10.0 mi WNW 10.4 mph - N/A   Scattered Clouds
4:56 AM 43.0 °F 36.8 °F 39.0 °F 86% 30.23 in 10.0 mi WNW 11.5 mph - N/A   Clear
5:56 AM 41.0 °F 37.1 °F 37.9 °F 89% 30.27 in 10.0 mi WNW 5.8 mph - N/A   Partly Cloudy
6:56 AM 39.0 °F 34.8 °F 37.0 °F 93% 30.28 in 10.0 mi West 5.8 mph - N/A   Partly Cloudy
7:17 AM 39.0 °F 35.7 °F 37.0 °F 93% 30.26 in 10.0 mi West 4.6 mph - N/A   Mostly Cloudy
7:40 AM 41.0 °F 37.1 °F 37.9 °F 89% 30.27 in 10.0 mi West 5.8 mph - N/A   Overcast
7:56 AM 41.0 °F 36.4 °F 39.0 °F 93% 30.30 in 10.0 mi WNW 6.9 mph - N/A   Overcast
8:08 AM 42.1 °F 38.4 °F 39.0 °F 89% 30.29 in 10.0 mi West 5.8 mph - N/A   Overcast
8:56 AM 42.1 °F 37.1 °F 39.0 °F 89% 30.34 in 10.0 mi WNW 8.1 mph - N/A   Overcast
9:56 AM 43.0 °F 37.7 °F 39.0 °F 86% 30.36 in 10.0 mi NW 9.2 mph - N/A   Overcast
10:52 AM 46.4 °F 41.9 °F 39.2 °F 76% 30.34 in 10.0 mi NW 9.2 mph - N/A   Overcast
10:56 AM 46.0 °F 41.0 °F 39.0 °F 76% 30.37 in 10.0 mi NW 10.4 mph - N/A   Overcast
11:56 AM 48.0 °F - 39.9 °F 74% 30.36 in 10.0 mi NW 11.5 mph - N/A   Overcast
12:56 PM 50.0 °F - 39.9 °F 68% 30.37 in 10.0 mi NNW 12.7 mph 20.7 mph N/A   Overcast
1:56 PM 51.1 °F - 41.0 °F 68% 30.36 in 10.0 mi NNW 13.8 mph - N/A   Overcast
2:21 PM 52.0 °F - 41.0 °F 66% 30.33 in 10.0 mi NW 10.4 mph - N/A   Scattered Clouds
2:56 PM 54.0 °F - 42.1 °F 64% 30.33 in 10.0 mi NW 11.5 mph - N/A   Partly Cloudy
3:56 PM 54.0 °F - 41.0 °F 62% 30.32 in 10.0 mi NNE 8.1 mph - N/A   Clear
4:56 PM 55.9 °F - 41.0 °F 57% 30.32 in 10.0 mi North 5.8 mph - N/A   Clear
5:56 PM 55.9 °F - 42.1 °F 60% 30.32 in 10.0 mi North 5.8 mph - N/A   Partly Cloudy
6:56 PM 52.0 °F - 39.9 °F 63% 30.34 in 10.0 mi NE 6.9 mph - N/A   Scattered Clouds
7:56 PM 48.0 °F - 39.9 °F 74% 30.35 in 10.0 mi NE 6.9 mph - N/A   Clear
8:56 PM 45.0 °F 41.2 °F 39.0 °F 80% 30.37 in 10.0 mi ENE 6.9 mph - N/A   Clear
9:56 PM 44.1 °F 42.5 °F 37.9 °F 79% 30.38 in 10.0 mi NE 3.5 mph - N/A   Clear
10:56 PM 41.0 °F 39.0 °F 37.9 °F 89% 30.38 in 10.0 mi ESE 3.5 mph - N/A   Clear
11:56 PM 39.9 °F 35.8 °F 37.0 °F 89% 30.39 in 10.0 mi ESE 5.8 mph - N/A   Clear